Regional Weather Roundup
Issued by NWS Raleigh/Durham, NC

Home | Current Version | Previous Version | Text Only | Print | Product List | Glossary On
Versions: 1 2 3 4 5 6 7 8 9 10 11 12 13 14 15 16 17 18 19 20 21 22 23 24 25 26 27 28 29 30 31 32 33 34 35 36 37 38 39 40 41 42 43 44 45 46 47 48 49 50
000
ASUS42 KRAH 311310
RWRRAH
NORTH CAROLINA WEATHER ROUNDUP
NATIONAL WEATHER SERVICE RALEIGH NC
800 AM EST SAT JAN 31 2015

NOTE: "FAIR" INDICATES FEW OR NO CLOUDS BELOW 12,000 FEET WITH NO
SIGNIFICANT WEATHER AND/OR OBSTRUCTIONS TO VISIBILITY.

NCZ001-053-055-056-065-067-311400-
WESTERN NORTH CAROLINA

CITY           SKY/WX    TMP DP  RH WIND       PRES   REMARKS
ASHEVILLE      CLEAR     23  12  62 N12       30.31R WCI  12
JEFFERSON      CLEAR     20   0  40 CALM      30.20R
MORGANTON      CLEAR     19  15  83 CALM      30.35R
HICKORY        CLEAR     24  11  57 W6        30.30R WCI  17
RUTHERFORDTON  CLEAR     21  14  74 W3        30.33R
MOUNT AIRY     CLEAR     29   5  37 NW3       30.32R
BOONE          CLEAR     20   6  55 W13G21    30.22R WCI   7
$$

NCZ021-022-025-041-071-084-088-311400-
CENTRAL NORTH CAROLINA

CITY           SKY/WX    TMP DP  RH WIND       PRES   REMARKS
CHARLOTTE      PTCLDY    25  17  72 CALM      30.35R
GREENSBORO     MOCLDY    25   9  50 CALM      30.31S
WINSTON-SALEM  CLEAR     25   7  46 N3        30.33R
RALEIGH-DURHAM PTCLDY    26   8  46 CALM      30.35R
FORT BRAGG     CLEAR     27  10  47 CALM      30.35R
FAYETTEVILLE   CLEAR     29   9  43 N6        30.35R WCI  23
BURLINGTON     CLEAR     19  13  77 CALM      30.34R
LAURINBURG     CLEAR     24  14  65 N5        30.36S WCI  18
$$

NCZ011-015-027-028-043-044-047-080-103-311400-
NORTHEASTERN NORTH CAROLINA

CITY           SKY/WX    TMP DP  RH WIND       PRES   REMARKS
ROCKY MT-WILSO CLEAR     28  10  46 NW8       30.35R WCI  20
GREENVILLE     CLEAR     28  14  54 NW3       30.35R
WASHINGTON     CLEAR     26  13  59 NW5       30.34R WCI  20
ELIZABETH CITY CLEAR     24  10  55 NW13      30.33R WCI  12
MANTEO         CLEAR     27  12  54 N14G24    30.29S WCI  15
CAPE HATTERAS  CLEAR     30  15  53 NW10G23   30.29R WCI  21
$$

NCZ078-087-090-091-093-098-101-311400-
SOUTHEASTERN NORTH CAROLINA

CITY           SKY/WX    TMP DP  RH WIND       PRES   REMARKS
LUMBERTON      CLEAR     27  20  75 CALM      30.36R
GOLDSBORO      CLEAR     32  14  47 NW7       30.29S WCI  26
KINSTON        CLEAR     28  12  50 N9        30.35R WCI  20
KENANSVILLE    CLEAR     28  12  52 N7        30.36R WCI  20
NEW BERN       CLEAR     30  12  47 NW10      30.35R WCI  21
CHERRY POINT   CLEAR     30  13  49 N16       30.34R WCI  19
BEAUFORT       CLEAR     30  14  51 N14       30.32R WCI  19
JACKSONVILLE   CLEAR     29  13  51 N9        30.34R WCI  20
WILMINGTON     CLEAR     29  14  53 N6        30.36R WCI  23
$$



USA.gov is the U.S. government's official web portal to all federal, state and local government web resources and services.